Regional Weather Roundup
Issued by NWS

Home | Current Version | Previous Version | Graphics & Text | Print | Product List | Glossary On
Versions: 1 2 3 4 5 6 7 8 9 10 11 12 13 14 15 16 17 18 19 20 21 22 23 24 25 26 27 28 29 30 31 32 33 34 35 36 37 38 39 40 41 42 43 44 45 46 47 48 49 50
000
ASUS43 KFSD 291610
RWRSD

WEATHER ROUNDUP FOR SOUTH DAKOTA
NATIONAL WEATHER SERVICE SIOUX FALLS SD
1100 AM CDT FRI APR 29 2016

NOTE: "FAIR" INDICATES FEW OR NO CLOUDS BELOW 12,000 FEET WITH NO
SIGNIFICANT WEATHER AND/OR OBSTRUCTIONS TO VISIBILITY.


SDZ001>005-009-010-012>017-291700-
NORTHWEST AND NORTH CENTRAL SOUTH DAKOTA

CITY           SKY/WX    TMP DP  RH WIND       PRES   REMARKS
BUFFALO          N/A     44  35  70 E10       30.02F
FAITH            N/A     45  35  68 E8        30.10F
MOBRIDGE       SUNNY     53  40  61 NE10      30.10F
$$

SDZ012>016-024>037-041>051-057-063-072>074-291700-
SOUTHWEST AND SOUTH CENTRAL SOUTH DAKOTA

CITY           SKY/WX    TMP DP  RH WIND       PRES   REMARKS
RAPID CTY ARPT CLOUDY    39  35  86 E7        30.09F
PIERRE         CLOUDY    49  37  63 NE12      30.09F
CUSTER         CLOUDY    33  29  85 NE9       30.01F WCI  25
ELLSWORTH AFB  CLOUDY    38  37  97 SE2       30.09
PHILIP         CLOUDY    45  37  73 NE14      30.09F
PINE RIDGE     CLOUDY    41  33  73 N6        30.06F
WINNER         CLOUDY    42  36  79 NE12      30.08F
$$

SDZ004>011-016>023-039-040-291700-
NORTHEAST SOUTH DAKOTA

CITY           SKY/WX    TMP DP  RH WIND       PRES   REMARKS
ABERDEEN       SUNNY     52  39  61 VRB6      30.16F
WATERTOWN      PTSUNNY   50  39  66 NE10      30.14F
BROOKINGS      CLOUDY    43  38  82 NE12      30.12F
SISSETON         N/A     53  39  59 NE10      30.14F
$$

SDZ017-020-022-023-036>040-048>070-291700-
SOUTHEAST SOUTH DAKOTA

CITY           SKY/WX    TMP DP  RH WIND       PRES   REMARKS
SIOUX FALLS    CLOUDY    42  37  82 NE16G24   30.11S
HURON          PTSUNNY   49  40  71 E13       30.13F
CHAMBERLAIN    CLOUDY    43  39  85 NE9       30.11F
MITCHELL       CLOUDY    44  39  82 E13       30.13F
YANKTON        CLOUDY    43  37  81 NE13      30.10S
$$

ABBREVIATIONS USED IN REMARKS
   TC - TEMPERATURE IN CELSIUS
  WCI - WIND CHILL INDEX
   HX - HEAT INDEX
  VSB - VISIBILITY





USA.gov is the U.S. government's official web portal to all federal, state and local government web resources and services.